Year,Month,Day,Hour,Minute,Value (Times are PST for temperature in C)
2008,11,19,00,02,7.80
2008,11,19,00,03,7.80
2008,11,19,00,04,7.80
2008,11,19,00,05,7.80
2008,11,19,00,06,7.80
2008,11,19,00,07,7.80
2008,11,19,00,08,7.80
2008,11,19,00,09,7.80
2008,11,19,00,10,7.80
2008,11,19,00,11,7.80
2008,11,19,00,12,7.80
2008,11,19,00,13,7.80
2008,11,19,00,14,7.80
2008,11,19,00,15,7.80
2008,11,19,00,16,7.80
2008,11,19,00,17,7.80
2008,11,19,00,18,7.80
2008,11,19,00,19,7.80
2008,11,19,00,20,7.80
2008,11,19,00,21,7.80
2008,11,19,00,22,7.80
2008,11,19,00,23,7.80
2008,11,19,00,24,7.80
2008,11,19,00,25,7.80
2008,11,19,00,26,7.80
2008,11,19,00,27,7.80
2008,11,19,00,28,7.80
2008,11,19,00,29,7.80
2008,11,19,00,30,7.80
2008,11,19,00,32,7.80
2008,11,19,00,33,7.80
2008,11,19,00,34,7.80
2008,11,19,00,36,7.80
2008,11,19,00,37,7.80
2008,11,19,00,38,7.80
2008,11,19,00,39,7.80
2008,11,19,00,40,7.80
2008,11,19,00,41,7.80
2008,11,19,00,42,7.80
2008,11,19,00,43,7.80
2008,11,19,00,44,7.80
2008,11,19,00,45,7.80
2008,11,19,00,46,7.80
2008,11,19,00,47,7.80
2008,11,19,00,48,8.10
2008,11,19,00,49,8.10
2008,11,19,00,50,8.10
2008,11,19,00,51,8.10
2008,11,19,00,52,8.10
2008,11,19,00,53,8.10
2008,11,19,00,54,8.10
2008,11,19,00,55,8.10
2008,11,19,00,56,8.10
2008,11,19,00,57,8.10
2008,11,19,00,58,8.10
2008,11,19,00,59,8.10
2008,11,19,01,00,8.10
2008,11,19,01,01,8.10
2008,11,19,01,02,8.10
2008,11,19,01,03,8.10
2008,11,19,01,04,8.10
2008,11,19,01,05,8.10
2008,11,19,01,06,8.10
2008,11,19,01,07,8.10
2008,11,19,01,09,8.20
2008,11,19,01,10,8.20
2008,11,19,01,11,8.20
2008,11,19,01,12,8.20
2008,11,19,01,13,8.20
2008,11,19,01,14,8.20
2008,11,19,01,15,8.20
2008,11,19,01,16,8.20
2008,11,19,01,17,8.20
2008,11,19,01,18,8.20
2008,11,19,01,19,8.20
2008,11,19,01,20,8.20
2008,11,19,01,21,8.20
2008,11,19,01,22,8.20
2008,11,19,01,23,8.20
2008,11,19,01,24,8.20
2008,11,19,01,25,8.20
2008,11,19,01,26,8.20
2008,11,19,01,27,8.20
2008,11,19,01,28,8.20
2008,11,19,01,29,8.20
2008,11,19,01,30,8.20
2008,11,19,01,31,8.20
2008,11,19,01,32,8.20
2008,11,19,01,34,8.20
2008,11,19,01,35,8.20
2008,11,19,01,36,8.20
2008,11,19,01,37,8.20
2008,11,19,01,38,8.20
2008,11,19,01,39,8.20
2008,11,19,01,40,8.20
2008,11,19,01,41,8.20
2008,11,19,01,42,8.20
2008,11,19,01,44,8.20
2008,11,19,01,46,8.20
2008,11,19,01,47,8.20
2008,11,19,01,48,8.20
2008,11,19,01,49,8.20
2008,11,19,01,50,8.20
2008,11,19,01,51,8.20
2008,11,19,01,52,8.20
2008,11,19,01,53,8.30
2008,11,19,01,54,8.30
2008,11,19,01,55,8.30
2008,11,19,01,56,8.30
2008,11,19,01,57,8.30
2008,11,19,01,58,8.30
2008,11,19,02,00,8.30
2008,11,19,02,01,8.30
2008,11,19,02,02,8.30
2008,11,19,02,03,8.30
2008,11,19,02,04,8.30
2008,11,19,02,05,8.30
2008,11,19,02,06,8.30
2008,11,19,02,07,8.30
2008,11,19,02,08,8.40
2008,11,19,02,09,8.40
2008,11,19,02,10,8.40
2008,11,19,02,11,8.40
2008,11,19,02,13,8.40
2008,11,19,02,14,8.40
2008,11,19,02,15,8.40
2008,11,19,02,16,8.40
2008,11,19,02,17,8.40
2008,11,19,02,18,8.40
2008,11,19,02,19,8.40
2008,11,19,02,20,8.40
2008,11,19,02,21,8.40
2008,11,19,02,22,8.40
2008,11,19,02,23,8.40
2008,11,19,02,24,8.40
2008,11,19,02,25,8.40
2008,11,19,02,26,8.40
2008,11,19,02,27,8.40
2008,11,19,02,28,8.40
2008,11,19,02,29,8.40
2008,11,19,02,30,8.40
2008,11,19,02,32,8.40
2008,11,19,02,33,8.40
2008,11,19,02,34,8.40
2008,11,19,02,35,8.40
2008,11,19,02,36,8.40
2008,11,19,02,37,8.40
2008,11,19,02,38,8.40
2008,11,19,02,53,8.10
2008,11,19,02,54,8.10
2008,11,19,02,55,8.10
2008,11,19,02,56,8.10
2008,11,19,02,57,8.10
2008,11,19,02,58,8.10
2008,11,19,03,00,8.10
2008,11,19,03,01,8.10
2008,11,19,03,02,8.10
2008,11,19,03,03,8.10
2008,11,19,03,04,8.10
2008,11,19,03,05,8.10
2008,11,19,03,06,8.10
2008,11,19,03,07,8.10
2008,11,19,03,08,8.00
2008,11,19,03,09,8.00
2008,11,19,03,10,8.00
2008,11,19,03,11,8.00
2008,11,19,03,12,8.00
2008,11,19,03,13,8.00
2008,11,19,03,14,8.00
2008,11,19,03,15,8.00
2008,11,19,03,16,8.00
2008,11,19,03,17,8.00
2008,11,19,03,18,8.00
2008,11,19,03,19,8.00
2008,11,19,03,20,8.00
2008,11,19,03,22,8.00
2008,11,19,03,23,7.90
2008,11,19,03,24,7.90
2008,11,19,03,25,7.90
2008,11,19,03,27,7.90
2008,11,19,03,28,7.90
2008,11,19,03,29,7.90
2008,11,19,03,30,7.90
2008,11,19,03,32,7.90
2008,11,19,03,33,7.90
2008,11,19,03,34,7.90
2008,11,19,03,35,7.90
2008,11,19,03,36,7.90
2008,11,19,03,37,7.90
2008,11,19,03,38,7.90
2008,11,19,03,39,7.80
2008,11,19,03,40,7.80
2008,11,19,03,41,7.80
2008,11,19,03,42,7.80
2008,11,19,03,43,7.80
2008,11,19,03,44,7.80
2008,11,19,03,45,7.80
2008,11,19,03,46,7.80
2008,11,19,03,47,7.80
2008,11,19,03,48,7.80
2008,11,19,03,49,7.80
2008,11,19,03,51,7.80
2008,11,19,03,52,7.80
2008,11,19,03,53,7.80
2008,11,19,03,54,7.80
2008,11,19,03,56,7.80
2008,11,19,03,57,7.80
2008,11,19,03,58,7.80
2008,11,19,03,59,7.80
2008,11,19,04,01,7.80
2008,11,19,04,02,7.80
2008,11,19,04,03,7.80
2008,11,19,04,04,7.80
2008,11,19,04,05,7.80
2008,11,19,04,06,7.80
2008,11,19,04,07,7.80
2008,11,19,04,09,7.80
2008,11,19,04,10,7.80
2008,11,19,04,11,7.80
2008,11,19,04,13,7.80
2008,11,19,04,15,7.80
2008,11,19,04,16,7.80
2008,11,19,04,17,7.80
2008,11,19,04,18,7.80
2008,11,19,04,19,7.80
2008,11,19,04,21,7.80
2008,11,19,04,22,7.80
2008,11,19,04,23,7.80
2008,11,19,04,24,7.80
2008,11,19,04,25,8.10
2008,11,19,04,26,8.10
2008,11,19,04,27,8.10
2008,11,19,04,28,8.10
2008,11,19,04,29,8.10
2008,11,19,04,30,8.10
2008,11,19,04,31,8.10
2008,11,19,04,32,8.10
2008,11,19,04,33,8.10
2008,11,19,04,34,8.10
2008,11,19,04,35,8.10
2008,11,19,04,36,8.10
2008,11,19,04,37,8.10
2008,11,19,04,38,8.10
2008,11,19,04,39,8.10
2008,11,19,04,40,8.10
2008,11,19,04,41,8.30
2008,11,19,04,42,8.30
2008,11,19,04,43,8.30
2008,11,19,04,44,8.30
2008,11,19,04,45,8.30
2008,11,19,04,46,8.30
2008,11,19,04,47,8.30
2008,11,19,04,48,8.30
2008,11,19,04,49,8.30
2008,11,19,04,50,8.30
2008,11,19,04,51,8.30
2008,11,19,04,52,8.30
2008,11,19,04,54,8.30
2008,11,19,04,55,8.30
2008,11,19,05,12,8.40
2008,11,19,05,13,8.40
2008,11,19,05,14,8.40
2008,11,19,05,15,8.40
2008,11,19,05,16,8.40
2008,11,19,05,17,8.40
2008,11,19,05,18,8.40
2008,11,19,05,19,8.40
2008,11,19,05,20,8.40
2008,11,19,05,21,8.40
2008,11,19,05,22,8.40
2008,11,19,05,23,8.40
2008,11,19,05,25,8.40
2008,11,19,05,26,8.40
2008,11,19,05,27,8.40
2008,11,19,05,28,8.40
2008,11,19,05,29,8.40
2008,11,19,05,30,8.40
2008,11,19,05,31,8.40
2008,11,19,05,32,8.40
2008,11,19,05,33,8.40
2008,11,19,05,34,8.40
2008,11,19,05,35,8.40
2008,11,19,05,36,8.40
2008,11,19,05,37,8.40
2008,11,19,05,38,8.40
2008,11,19,05,39,8.40
2008,11,19,05,40,8.40
2008,11,19,05,41,8.40
2008,11,19,05,42,8.40
2008,11,19,05,43,8.40
2008,11,19,05,44,8.40
2008,11,19,05,45,8.40
2008,11,19,05,46,8.40
2008,11,19,05,48,8.40
2008,11,19,05,49,8.40
2008,11,19,05,50,8.40
2008,11,19,05,51,8.40
2008,11,19,05,52,8.40
2008,11,19,05,53,8.40
2008,11,19,05,54,8.40
2008,11,19,05,55,8.40
2008,11,19,05,57,8.40
2008,11,19,05,58,8.30
2008,11,19,06,00,8.30
2008,11,19,06,01,8.30
2008,11,19,06,02,8.30
2008,11,19,06,03,8.30
2008,11,19,06,04,8.30
2008,11,19,06,05,8.30
2008,11,19,06,06,8.30
2008,11,19,06,07,8.30
2008,11,19,06,08,8.30
2008,11,19,06,09,8.30
2008,11,19,06,10,8.30
2008,11,19,06,11,8.30
2008,11,19,06,12,8.30
2008,11,19,06,14,8.40
2008,11,19,06,15,8.40
2008,11,19,06,16,8.40
2008,11,19,06,17,8.40
2008,11,19,06,18,8.40
2008,11,19,06,19,8.40
2008,11,19,06,20,8.40
2008,11,19,06,21,8.40
2008,11,19,06,22,8.40
2008,11,19,06,23,8.40
2008,11,19,06,24,8.40
2008,11,19,06,25,8.40
2008,11,19,06,27,8.40
2008,11,19,06,28,8.40
2008,11,19,06,29,8.40
2008,11,19,06,30,8.40
2008,11,19,06,31,8.40
2008,11,19,06,32,8.40
2008,11,19,06,33,8.40
2008,11,19,06,34,8.40
2008,11,19,06,35,8.40
2008,11,19,06,36,8.40
2008,11,19,06,37,8.40
2008,11,19,06,38,8.40
2008,11,19,06,39,8.40
2008,11,19,06,40,8.40
2008,11,19,06,41,8.40
2008,11,19,06,42,8.40
2008,11,19,06,43,8.40
2008,11,19,06,44,8.40
2008,11,19,06,45,8.30
2008,11,19,06,46,8.30
2008,11,19,06,47,8.30
2008,11,19,06,48,8.30
2008,11,19,06,49,8.30
2008,11,19,06,51,8.30
2008,11,19,06,52,8.30
2008,11,19,06,54,8.30
2008,11,19,06,55,8.30
2008,11,19,06,56,8.30
2008,11,19,06,57,8.30
2008,11,19,06,58,8.30
2008,11,19,06,59,8.30
2008,11,19,07,00,8.40
2008,11,19,07,01,8.40
2008,11,19,07,02,8.40
2008,11,19,07,03,8.40
2008,11,19,07,04,8.40
2008,11,19,07,05,8.40
2008,11,19,07,07,8.40
2008,11,19,07,08,8.40
2008,11,19,07,09,8.40
2008,11,19,07,10,8.40
2008,11,19,07,12,8.40
2008,11,19,07,13,8.40
2008,11,19,07,14,8.40
2008,11,19,07,15,8.40
2008,11,19,07,17,8.40
2008,11,19,07,18,8.40
2008,11,19,07,19,8.40
2008,11,19,07,20,8.40
2008,11,19,07,21,8.40
2008,11,19,07,22,8.40
2008,11,19,07,23,8.40
2008,11,19,07,24,8.40
2008,11,19,07,25,8.40
2008,11,19,07,26,8.40
2008,11,19,07,28,8.40
2008,11,19,07,29,8.40
2008,11,19,07,30,8.40
2008,11,19,07,31,8.60
2008,11,19,07,32,8.60
2008,11,19,07,33,8.60
2008,11,19,07,34,8.60
2008,11,19,07,35,8.60
2008,11,19,07,36,8.60
2008,11,19,07,37,8.60
2008,11,19,07,38,8.60
2008,11,19,07,39,8.60
2008,11,19,07,40,8.60
2008,11,19,07,41,8.60
2008,11,19,07,42,8.60
2008,11,19,07,43,8.60
2008,11,19,07,44,8.60
2008,11,19,07,45,8.60
2008,11,19,07,46,8.60
2008,11,19,07,47,8.40
2008,11,19,07,48,8.40
2008,11,19,07,49,8.40
2008,11,19,07,50,8.40
2008,11,19,07,51,8.40
2008,11,19,07,52,8.40
2008,11,19,07,53,8.40
2008,11,19,07,54,8.40
2008,11,19,07,55,8.40
2008,11,19,07,57,8.40
2008,11,19,07,58,8.40
2008,11,19,07,59,8.40
2008,11,19,08,00,8.40
2008,11,19,08,01,8.40
2008,11,19,08,02,8.50
2008,11,19,08,03,8.50
2008,11,19,08,05,8.50
2008,11,19,08,06,8.50
2008,11,19,08,07,8.50
2008,11,19,08,08,8.50
2008,11,19,08,09,8.50
2008,11,19,08,10,8.50
2008,11,19,08,11,8.50
2008,11,19,08,12,8.50
2008,11,19,08,13,8.50
2008,11,19,08,14,8.50
2008,11,19,08,15,8.50
2008,11,19,08,16,8.50
2008,11,19,08,17,8.50
2008,11,19,08,18,8.40
2008,11,19,08,19,8.40
2008,11,19,08,20,8.40
2008,11,19,08,21,8.40
2008,11,19,08,22,8.40
2008,11,19,08,23,8.40
2008,11,19,08,24,8.40
2008,11,19,08,25,8.40
2008,11,19,08,26,8.40
2008,11,19,08,27,8.40
2008,11,19,08,28,8.40
2008,11,19,08,29,8.40
2008,11,19,08,31,8.40
2008,11,19,08,32,8.40
2008,11,19,08,33,8.60
2008,11,19,08,34,8.60
2008,11,19,08,35,8.60
2008,11,19,08,36,8.60
2008,11,19,08,37,8.60
2008,11,19,08,38,8.60
2008,11,19,08,39,8.60
2008,11,19,08,40,8.60
2008,11,19,08,41,8.60
2008,11,19,08,42,8.60
2008,11,19,08,43,8.60
2008,11,19,08,44,8.60
2008,11,19,08,45,8.60
2008,11,19,08,46,8.60
2008,11,19,08,47,8.60
2008,11,19,08,48,8.60
2008,11,19,08,49,8.70
2008,11,19,08,50,8.70
2008,11,19,08,51,8.70
2008,11,19,08,52,8.70
2008,11,19,08,53,8.70
2008,11,19,08,54,8.70
2008,11,19,08,55,8.70
2008,11,19,08,56,8.70
2008,11,19,08,57,8.70
2008,11,19,08,58,8.70
2008,11,19,08,59,8.70
2008,11,19,09,01,8.70
2008,11,19,09,02,8.70
2008,11,19,09,03,8.70
2008,11,19,09,04,8.80
2008,11,19,09,05,8.80
2008,11,19,09,06,8.80
2008,11,19,09,07,8.80
2008,11,19,09,08,8.80
2008,11,19,09,09,8.80
2008,11,19,09,10,8.80
2008,11,19,09,11,8.80
2008,11,19,09,12,8.80
2008,11,19,09,13,8.80
2008,11,19,09,14,8.80
2008,11,19,09,15,8.80
2008,11,19,09,16,8.80
2008,11,19,09,17,8.80
2008,11,19,09,18,8.80
2008,11,19,09,19,8.80
2008,11,19,09,20,9.00
2008,11,19,09,21,9.00
2008,11,19,09,22,9.00
2008,11,19,09,23,9.00
2008,11,19,09,24,9.00
2008,11,19,09,25,9.00
2008,11,19,09,26,9.00
2008,11,19,09,28,9.00
2008,11,19,09,29,9.00
2008,11,19,09,30,9.00
2008,11,19,09,31,9.00
2008,11,19,09,32,9.00
2008,11,19,09,34,9.00
2008,11,19,09,35,9.10
2008,11,19,09,36,9.10
2008,11,19,09,37,9.10
2008,11,19,09,38,9.10
2008,11,19,09,39,9.10
2008,11,19,09,40,9.10
2008,11,19,09,41,9.10
2008,11,19,09,42,9.10
2008,11,19,09,43,9.10
2008,11,19,09,44,9.10
2008,11,19,09,45,9.10
2008,11,19,09,46,9.10
2008,11,19,09,47,9.10
2008,11,19,09,48,9.10
2008,11,19,09,49,9.10
2008,11,19,09,51,9.30
2008,11,19,09,52,9.30
2008,11,19,09,53,9.30
2008,11,19,09,54,9.30
2008,11,19,09,55,9.30
2008,11,19,09,56,9.30
2008,11,19,09,57,9.30
2008,11,19,09,58,9.30
2008,11,19,09,59,9.30
2008,11,19,10,00,9.30
2008,11,19,10,01,9.30
2008,11,19,10,02,9.30
2008,11,19,10,03,9.30
2008,11,19,10,04,9.30
2008,11,19,10,05,9.30
2008,11,19,10,06,9.60
2008,11,19,10,07,9.60
2008,11,19,10,08,9.60
2008,11,19,10,09,9.60
2008,11,19,10,10,9.60
2008,11,19,10,11,9.60
2008,11,19,10,12,9.60
2008,11,19,10,13,9.60
2008,11,19,10,15,9.60
2008,11,19,10,16,9.60
2008,11,19,10,17,9.60
2008,11,19,10,18,9.60
2008,11,19,10,19,9.60
2008,11,19,10,20,9.60
2008,11,19,10,21,9.60
2008,11,19,10,22,9.70
2008,11,19,10,23,9.70
2008,11,19,10,24,9.70
2008,11,19,10,25,9.70
2008,11,19,10,26,9.70
2008,11,19,10,27,9.70
2008,11,19,10,28,9.70
2008,11,19,10,29,9.70
2008,11,19,10,30,9.70
2008,11,19,10,31,9.70
2008,11,19,10,32,9.70
2008,11,19,10,33,9.70
2008,11,19,10,34,9.70
2008,11,19,10,35,9.70
2008,11,19,10,36,9.70
2008,11,19,10,37,9.90
2008,11,19,10,38,9.90
2008,11,19,10,39,9.90
2008,11,19,10,40,9.90
2008,11,19,10,41,9.90
2008,11,19,10,42,9.90
2008,11,19,10,43,9.90
2008,11,19,10,44,9.90
2008,11,19,10,45,9.90
2008,11,19,10,46,9.90
2008,11,19,10,47,9.90
2008,11,19,10,48,9.90
2008,11,19,10,49,9.90
2008,11,19,10,50,9.90
2008,11,19,10,51,9.90
2008,11,19,10,52,9.90
2008,11,19,10,53,10.10
2008,11,19,10,54,10.10
2008,11,19,10,55,10.10
2008,11,19,10,56,10.10
2008,11,19,10,57,10.10
2008,11,19,10,58,10.10
2008,11,19,10,59,10.10
2008,11,19,11,00,10.10
2008,11,19,11,01,10.10
2008,11,19,11,02,10.10
2008,11,19,11,03,10.10
2008,11,19,11,04,10.10
2008,11,19,11,05,10.10
2008,11,19,11,06,10.10
2008,11,19,11,07,10.10
2008,11,19,11,08,10.10
2008,11,19,11,09,10.10
2008,11,19,11,10,10.10
2008,11,19,11,11,10.10
2008,11,19,11,12,10.10
2008,11,19,11,13,10.10
2008,11,19,11,14,10.10
2008,11,19,11,15,10.10
2008,11,19,11,16,10.10
2008,11,19,11,17,10.10
2008,11,19,11,18,10.10
2008,11,19,11,19,10.10
2008,11,19,11,20,10.10
2008,11,19,11,21,10.10
2008,11,19,11,22,10.10
2008,11,19,11,23,10.10
2008,11,19,11,24,10.10
2008,11,19,11,25,10.10
2008,11,19,11,26,10.10
2008,11,19,11,27,10.10
2008,11,19,11,28,10.10
2008,11,19,11,29,10.10
2008,11,19,11,30,10.10
2008,11,19,11,31,10.10
2008,11,19,11,32,10.10
2008,11,19,11,33,10.10
2008,11,19,11,34,10.10
2008,11,19,11,35,10.10
2008,11,19,11,36,10.10
2008,11,19,11,37,10.10
2008,11,19,11,38,10.10
2008,11,19,11,39,10.40
2008,11,19,11,40,10.40
2008,11,19,11,41,10.40
2008,11,19,11,42,10.40
2008,11,19,11,43,10.40
2008,11,19,11,44,10.40
2008,11,19,11,45,10.40
2008,11,19,11,46,10.40
2008,11,19,11,47,10.40
2008,11,19,11,48,10.40
2008,11,19,11,49,10.40
2008,11,19,11,50,10.40
2008,11,19,11,51,10.40
2008,11,19,11,52,10.40
2008,11,19,11,53,10.40
2008,11,19,11,54,10.40
2008,11,19,11,55,10.30
2008,11,19,11,56,10.30
2008,11,19,11,57,10.30
2008,11,19,11,58,10.30
2008,11,19,11,59,10.30
2008,11,19,12,00,10.30
2008,11,19,12,01,10.30
2008,11,19,12,02,10.30
2008,11,19,12,04,10.30
2008,11,19,12,05,10.30
2008,11,19,12,06,10.30
2008,11,19,12,07,10.30
2008,11,19,12,08,10.30
2008,11,19,12,09,10.30
2008,11,19,12,10,10.40
2008,11,19,12,12,10.40
2008,11,19,12,13,10.40
2008,11,19,12,14,10.40
2008,11,19,12,16,10.40
2008,11,19,12,17,10.40
2008,11,19,12,18,10.40
2008,11,19,12,19,10.40
2008,11,19,12,20,10.40
2008,11,19,12,21,10.40
2008,11,19,12,22,10.40
2008,11,19,12,23,10.40
2008,11,19,12,25,10.40
2008,11,19,12,26,10.50
2008,11,19,12,27,10.50
2008,11,19,12,28,10.50
2008,11,19,12,29,10.50
2008,11,19,12,30,10.50
2008,11,19,12,31,10.50
2008,11,19,12,32,10.50
2008,11,19,12,33,10.50
2008,11,19,12,34,10.50
2008,11,19,12,35,10.50
2008,11,19,12,36,10.50
2008,11,19,12,37,10.50
2008,11,19,12,38,10.50
2008,11,19,12,39,10.50
2008,11,19,12,40,10.50
2008,11,19,12,41,10.40
2008,11,19,12,42,10.40
2008,11,19,12,43,10.40
2008,11,19,12,45,10.40
2008,11,19,12,46,10.40
2008,11,19,12,47,10.40
2008,11,19,12,48,10.40
2008,11,19,12,49,10.40
2008,11,19,12,50,10.40
2008,11,19,12,51,10.40
2008,11,19,12,52,10.40
2008,11,19,12,53,10.40
2008,11,19,12,54,10.40
2008,11,19,12,55,10.40
2008,11,19,12,56,10.40
2008,11,19,12,57,10.10
2008,11,19,12,58,10.10
2008,11,19,12,59,10.10
2008,11,19,13,00,10.10
2008,11,19,13,01,10.10
2008,11,19,13,02,10.10
2008,11,19,13,03,10.10
2008,11,19,13,04,10.10
2008,11,19,13,05,10.10
2008,11,19,13,06,10.10
2008,11,19,13,07,10.10
2008,11,19,13,08,10.10
2008,11,19,13,09,10.10
2008,11,19,13,10,10.10
2008,11,19,13,11,10.10
2008,11,19,13,12,9.90
2008,11,19,13,13,9.90
2008,11,19,13,14,9.90
2008,11,19,13,16,9.90
2008,11,19,13,17,9.90
2008,11,19,13,18,9.90
2008,11,19,13,19,9.90
2008,11,19,13,20,9.90
2008,11,19,13,21,9.90
2008,11,19,13,22,9.90
2008,11,19,13,23,9.90
2008,11,19,13,24,9.90
2008,11,19,13,25,9.90
2008,11,19,13,26,9.90
2008,11,19,13,27,9.90
2008,11,19,13,28,9.90
2008,11,19,13,29,9.90
2008,11,19,13,30,9.90
2008,11,19,13,31,9.90
2008,11,19,13,32,9.90
2008,11,19,13,33,9.90
2008,11,19,13,34,9.90
2008,11,19,13,35,9.90
2008,11,19,13,36,9.90
2008,11,19,13,37,9.90
2008,11,19,13,38,9.90
2008,11,19,13,39,9.90
2008,11,19,13,40,9.90
2008,11,19,13,41,9.90
2008,11,19,13,42,9.90
2008,11,19,13,43,9.90
2008,11,19,13,44,9.90
2008,11,19,13,45,9.90
2008,11,19,13,46,9.90
2008,11,19,13,47,9.90
2008,11,19,13,48,9.90
2008,11,19,13,49,9.90
2008,11,19,13,50,9.90
2008,11,19,13,52,9.90
2008,11,19,13,53,9.90
2008,11,19,13,54,9.90
2008,11,19,13,55,9.90
2008,11,19,13,56,9.90
2008,11,19,13,57,9.90
2008,11,19,13,58,9.80
2008,11,19,13,59,9.80
2008,11,19,14,00,9.80
2008,11,19,14,01,9.80
2008,11,19,14,02,9.80
2008,11,19,14,03,9.80
2008,11,19,14,04,9.80
2008,11,19,14,05,9.80
2008,11,19,14,06,9.80
2008,11,19,14,07,9.80
2008,11,19,14,08,9.80
2008,11,19,14,10,9.80
2008,11,19,14,11,9.80
2008,11,19,14,12,9.80
2008,11,19,14,13,9.90
2008,11,19,14,14,9.90
2008,11,19,14,15,9.90
2008,11,19,14,16,9.90
2008,11,19,14,17,9.90
2008,11,19,14,18,9.90
2008,11,19,14,19,9.90
2008,11,19,14,20,9.90
2008,11,19,14,21,9.90
2008,11,19,14,22,9.90
2008,11,19,14,23,9.90
2008,11,19,14,24,9.90
2008,11,19,14,25,9.90
2008,11,19,14,26,9.90
2008,11,19,14,27,9.90
2008,11,19,14,28,9.80
2008,11,19,14,29,9.80
2008,11,19,14,30,9.80
2008,11,19,14,31,9.80
2008,11,19,14,32,9.80
2008,11,19,14,33,9.80
2008,11,19,14,34,9.80
2008,11,19,14,35,9.80
2008,11,19,14,36,9.80
2008,11,19,14,37,9.80
2008,11,19,14,38,9.80
2008,11,19,14,39,9.80
2008,11,19,14,40,9.80
2008,11,19,14,41,9.80
2008,11,19,14,42,9.80
2008,11,19,14,43,9.60
2008,11,19,14,45,9.60
2008,11,19,14,46,9.60
2008,11,19,14,47,9.60
2008,11,19,14,48,9.60
2008,11,19,14,49,9.60
2008,11,19,14,50,9.60
2008,11,19,14,51,9.60
2008,11,19,14,52,9.60
2008,11,19,14,53,9.60
2008,11,19,14,54,9.60
2008,11,19,14,55,9.60
2008,11,19,14,56,9.60
2008,11,19,14,57,9.60
2008,11,19,14,58,9.50
2008,11,19,14,59,9.50
2008,11,19,15,00,9.50
2008,11,19,15,01,9.50
2008,11,19,15,02,9.50
2008,11,19,15,03,9.50
2008,11,19,15,04,9.50
2008,11,19,15,05,9.50
2008,11,19,15,06,9.50
2008,11,19,15,07,9.50
2008,11,19,15,08,9.50
2008,11,19,15,09,9.50
2008,11,19,15,10,9.50
2008,11,19,15,11,9.50
2008,11,19,15,12,9.50
2008,11,19,15,13,9.50
2008,11,19,15,14,9.50
2008,11,19,15,15,9.50
2008,11,19,15,16,9.50
2008,11,19,15,17,9.50
2008,11,19,15,18,9.50
2008,11,19,15,19,9.50
2008,11,19,15,20,9.50
2008,11,19,15,21,9.50
2008,11,19,15,22,9.50
2008,11,19,15,23,9.50
2008,11,19,15,24,9.50
2008,11,19,15,25,9.50
2008,11,19,15,26,9.50
2008,11,19,15,27,9.50
2008,11,19,15,28,9.30
2008,11,19,15,29,9.30
2008,11,19,15,30,9.30
2008,11,19,15,31,9.30
2008,11,19,15,32,9.30
2008,11,19,15,33,9.30
2008,11,19,15,34,9.30
2008,11,19,15,35,9.30
2008,11,19,15,36,9.30
2008,11,19,15,38,9.30
2008,11,19,15,39,9.30
2008,11,19,15,40,9.30
2008,11,19,15,41,9.30
2008,11,19,15,42,9.30
2008,11,19,15,43,9.20
2008,11,19,15,44,9.20
2008,11,19,15,45,9.20
2008,11,19,15,46,9.20
2008,11,19,15,47,9.20
2008,11,19,15,48,9.20
2008,11,19,15,49,9.20
2008,11,19,15,50,9.20
2008,11,19,15,51,9.20
2008,11,19,15,52,9.20
2008,11,19,15,53,9.20
2008,11,19,15,54,9.20
2008,11,19,15,55,9.20
2008,11,19,15,56,9.20
2008,11,19,15,57,9.20
2008,11,19,15,58,9.10
2008,11,19,15,59,9.10
2008,11,19,16,00,9.10
2008,11,19,16,01,9.10
2008,11,19,16,02,9.10
2008,11,19,16,03,9.10
2008,11,19,16,04,9.10
2008,11,19,16,05,9.10
2008,11,19,16,06,9.10
2008,11,19,16,07,9.10
2008,11,19,16,09,9.10
2008,11,19,16,10,9.10
2008,11,19,16,11,9.10
2008,11,19,16,12,9.10
2008,11,19,16,13,9.30
2008,11,19,16,14,9.30
2008,11,19,16,15,9.30
2008,11,19,16,16,9.30
2008,11,19,16,17,9.30
2008,11,19,16,18,9.30
2008,11,19,16,19,9.30
2008,11,19,16,20,9.30
2008,11,19,16,21,9.30
2008,11,19,16,22,9.30
2008,11,19,16,23,9.30
2008,11,19,16,24,9.30
2008,11,19,16,25,9.30
2008,11,19,16,26,9.30
2008,11,19,16,27,9.30
2008,11,19,16,28,9.30
2008,11,19,16,29,9.30
2008,11,19,16,30,9.30
2008,11,19,16,31,9.30
2008,11,19,16,32,9.30
2008,11,19,16,34,9.30
2008,11,19,16,35,9.30
2008,11,19,16,36,9.30
2008,11,19,16,37,9.30
2008,11,19,16,38,9.30
2008,11,19,16,39,9.30
2008,11,19,16,40,9.30
2008,11,19,16,41,9.30
2008,11,19,16,42,9.30
2008,11,19,16,43,9.40
2008,11,19,16,44,9.40
2008,11,19,16,45,9.40
2008,11,19,16,46,9.40
2008,11,19,16,47,9.40
2008,11,19,16,48,9.40
2008,11,19,16,49,9.40
2008,11,19,16,50,9.40
2008,11,19,16,51,9.40
2008,11,19,16,52,9.40
2008,11,19,16,53,9.40
2008,11,19,16,54,9.40
2008,11,19,16,55,9.40
2008,11,19,16,56,9.40
2008,11,19,16,57,9.40
2008,11,19,16,58,9.80
2008,11,19,16,59,9.80
2008,11,19,17,00,9.80
2008,11,19,17,01,9.80
2008,11,19,17,02,9.80
2008,11,19,17,03,9.80
2008,11,19,17,04,9.80
2008,11,19,17,05,9.80
2008,11,19,17,06,9.80
2008,11,19,17,07,9.80
2008,11,19,17,08,9.80
2008,11,19,17,09,9.80
2008,11,19,17,10,9.80
2008,11,19,17,11,9.80
2008,11,19,17,12,9.80
2008,11,19,17,13,9.80
2008,11,19,17,14,9.80
2008,11,19,17,15,10.30
2008,11,19,17,16,10.30
2008,11,19,17,17,10.30
2008,11,19,17,18,10.30
2008,11,19,17,19,10.30
2008,11,19,17,20,10.30
2008,11,19,17,21,10.30
2008,11,19,17,22,10.30
2008,11,19,17,23,10.30
2008,11,19,17,24,10.30
2008,11,19,17,25,10.30
2008,11,19,17,26,10.30
2008,11,19,17,27,10.30
2008,11,19,17,28,10.30
2008,11,19,17,29,10.30
2008,11,19,17,30,10.30
2008,11,19,17,31,10.70
2008,11,19,17,32,10.70
2008,11,19,17,33,10.70
2008,11,19,17,34,10.70
2008,11,19,17,35,10.70
2008,11,19,17,36,10.70
2008,11,19,17,37,10.70
2008,11,19,17,38,10.70
2008,11,19,17,39,10.70
2008,11,19,17,40,10.70
2008,11,19,17,41,10.70
2008,11,19,17,42,10.70
2008,11,19,17,43,10.70
2008,11,19,17,44,10.70
2008,11,19,17,45,10.70
2008,11,19,17,46,10.80
2008,11,19,17,47,10.80
2008,11,19,17,48,10.80
2008,11,19,17,49,10.80
2008,11,19,17,50,10.80
2008,11,19,17,51,10.80
2008,11,19,17,52,10.80
2008,11,19,17,53,10.80
2008,11,19,17,55,10.80
2008,11,19,17,56,10.80
2008,11,19,17,57,10.80
2008,11,19,17,58,10.80
2008,11,19,17,59,10.80
2008,11,19,18,00,10.80
2008,11,19,18,01,10.80
2008,11,19,18,02,10.80
2008,11,19,18,03,10.80
2008,11,19,18,04,10.80
2008,11,19,18,05,10.80
2008,11,19,18,06,10.80
2008,11,19,18,07,10.80
2008,11,19,18,08,10.80
2008,11,19,18,09,10.80
2008,11,19,18,10,10.80
2008,11,19,18,11,10.80
2008,11,19,18,12,10.80
2008,11,19,18,13,10.80
2008,11,19,18,14,10.80
2008,11,19,18,15,10.80
2008,11,19,18,16,10.70
2008,11,19,18,17,10.70
2008,11,19,18,18,10.70
2008,11,19,18,19,10.70
2008,11,19,18,20,10.70
2008,11,19,18,21,10.70
2008,11,19,18,22,10.70
2008,11,19,18,23,10.70
2008,11,19,18,24,10.70
2008,11,19,18,25,10.70
2008,11,19,18,26,10.70
2008,11,19,18,27,10.70
2008,11,19,18,28,10.70
2008,11,19,18,29,10.70
2008,11,19,18,30,10.70
2008,11,19,18,31,10.80
2008,11,19,18,32,10.80
2008,11,19,18,33,10.80
2008,11,19,18,34,10.80
2008,11,19,18,36,10.80
2008,11,19,18,37,10.80
2008,11,19,18,39,10.80
2008,11,19,18,40,10.80
2008,11,19,18,41,10.80
2008,11,19,18,42,10.80
2008,11,19,18,43,10.80
2008,11,19,18,44,10.80
2008,11,19,18,45,10.80
2008,11,19,18,46,10.90
2008,11,19,18,47,10.90
2008,11,19,18,48,10.90
2008,11,19,18,49,10.90
2008,11,19,18,51,10.90
2008,11,19,18,52,10.90
2008,11,19,18,53,10.90
2008,11,19,18,54,10.90
2008,11,19,18,55,10.90
2008,11,19,18,56,10.90
2008,11,19,18,57,10.90
2008,11,19,18,58,10.90
2008,11,19,18,59,10.90
2008,11,19,19,00,10.90
2008,11,19,19,01,10.60
2008,11,19,19,02,10.60
2008,11,19,19,03,10.60
2008,11,19,19,04,10.60
2008,11,19,19,05,10.60
2008,11,19,19,06,10.60
2008,11,19,19,07,10.60
2008,11,19,19,08,10.60
2008,11,19,19,09,10.60
2008,11,19,19,10,10.60
2008,11,19,19,11,10.60
2008,11,19,19,12,10.60
2008,11,19,19,13,10.60
2008,11,19,19,14,10.60
2008,11,19,19,15,10.60
2008,11,19,19,16,11.00
2008,11,19,19,17,11.00
2008,11,19,19,18,11.00
2008,11,19,19,19,11.00
2008,11,19,19,20,11.00
2008,11,19,19,21,11.00
2008,11,19,19,22,11.00
2008,11,19,19,23,11.00